SL-14 DEB

Satellite information

Favourite Embed

Satellite Type and Status

DEBRISIN ORBIT

Key statistics

Satellite SL-14 DEB at a glance.

Uptime

12381

Days in orbit

Revolutions

≈ 13.4

Per day

Orbit

LEO

Low Earth Orbit

Inclination

82.6

Latest

Satellite identification and parameters

Extended collection of information and parameters for SL-14 DEB.

Object identification

Identified? True

Debris? True

Object name: SL-14 DEB

International designator: 1991-056BB

Object number (NORAD): 45313

Object ID (CCSDS): 45313

Country: COMMONWEALTH OF INDEPENDENT STATES (CIS)

Current information (Y/N): Y

RCS size: SMALL

Orbital parameters

Period: 107.186 minutes

Inclination: 82.5779 deg

SMA: 7474.573 km

Apoapsis: 1166.925 km

Periapsis: 1025.95 km

RAAN: 330.9606 deg

Eccentricy: 0.0094303

Argument of periapsis: 351.6415 deg

Mean anomaly: 8.3146 deg

Mean motion: 13.43455227 rev/day

Mean motion (dot): 0.00000912 rev/day2

B* drag term: 0.0015267 1/REarth

Two-line elements (TLE)

Creation date: July 6, 2025, 6:05 p.m.

Reference frame: TEME

Reference center: EARTH

Epoch: July 6, 2025, 2:49 a.m. UTC

TLE line 0: 0 SL-14 DEB

TLE line 1: 1 45313U 91056BB 25187.11753365 .00000912 00000-0 15267-2 0 9996

TLE line 2: 2 45313 82.5779 330.9606 0094303 351.6415 8.3146 13.43455227262106

Live tracking on map

Real-time ground track for satellite SL-14 DEB.

In-orbit conjunctions

A list of the most updated potential collisions computed for object SL-14 DEB.

Target Orbit TCA Probability of collision Miss distance Type
SL-8 R/B LEO 2024-11-17 20:42:53 0.0001799799 139.0 (m) ROCKET BODY

Associated space launch

Third generation meteorological satellite

SL-14 DEB was lifted into orbit during the mission ‘Tsiklon-3 | Meteor-3 5’, on board a Tsiklon-3 space rocket.

The launch took place on Aug. 15, 1991, 9:15 a.m. from 32/2.

For more information about the launch, click the button.

Launch to space Tsiklon-3 | Meteor-3 5
Tsiklon-3 | Meteor-3 5

Agency: N/A

Status: Launch Successful

Launch date: Aug. 15, 1991, 9:15 a.m. UTC

Rocket: Tsiklon-3

Launch pad: 32/2

Location: Plesetsk Cosmodrome, Russian Federation

...

Latest news about this satellite

There are no fresh news available about this satellite. Check back as we update our databases every day.


Newsletter sign-up

Weekly statistics, charts and insights to help you stay on top of the space industry.